Location: Ash Shall?l al Awwal
(24.0167°N, 32.8667°E)
Time: 19:30:17
(UTC+00:00)

Meteor 1-27 Rocket - Pass Details

Date: 02 March 2021
Orbit: 830 x 910 km, 81.3° (Epoch: 09 April)

Event Time Altitude Azimuth Distance (km) Brightness Sun altitude
Rises 16:04:23 0° 354° (N) 3,373 6.8 -3.7°
Reaches altitude 10° 16:06:47 10° 354° (N) 2,440 6.1 -4.2°
Maximum altitude 16:12:18 87° 84° (E) 844 3.7 -5.5°
Drops below altitude 10° 16:17:54 10° 173° (S) 2,466 6.1 -6.8°
Sets 16:20:19 0° 174° (S) 3,410 6.8 -7.3°
